Home > Weather > Zwickau > Past weeks

Flag for Germany Weather for the Past 2 Weeks in Zwickau, Saxony, Germany

Now
59 °F

Passing clouds.


Feels Like: 59 °F
Forecast: 39 / 55 °F
Wind: 5 mph from North

Location: Altenburg Nobitz

Current Time: May 3, 2016 at 12:59:57 PM

Latest Report: May 3, 2016 at 11:50 AM


Visibility: N/A

Pressure: 30.04 "Hg

Humidity: 51%

Dew Point: 41 °F

Location of ZwickauLocation

Historic Weather in Zwickau — Graph

°F

Zwickau Temperature Yesterday

Maximum temperature yesterday: 63 °F (at 3:20 PM)
Minimum temperature yesterday: 46 °F (at 8:20 AM)
Average temperature yesterday: 59 °F

High & Low Weather Summary for the Past Weeks

 TemperatureHumidityPressure
High64 °F (Apr 30, 12:50 PM)100% (Apr 24, 12:50 PM)30.33 "Hg (Apr 24, 12:50 PM)
Low34 °F (Apr 24, 12:50 PM)32% (Apr 30, 12:50 PM)29.50 "Hg (Apr 26, 7:50 AM)
Average50 °F60%30.00 "Hg
* Reported Apr 18 11:50 AM — May 3 11:20 AM, Zwickau, Weather by CustomWeather, © 2016

Note: Actual official high and low records may vary slightly from our data, if they occured in-between our weather recording intervals... More about our weather records

Advertising

Zwickau Weather History for the Previous 24 Hours

Scroll right to see more
 ConditionsComfort  
Time TempWeatherWind HumidityBarometerVisibility
11:20 AM
Tue, May 3
61 °FPassing clouds.3 mph55%30.04 "HgN/A
10:50 AM59 °FPassing clouds.3 mph51%30.04 "HgN/A
10:20 AM57 °FSunny.3 mph63%30.04 "Hg10 mi
9:50 AM55 °FSunny.2 mph63%30.04 "Hg10 mi
9:20 AM54 °FSunny.2 mph72%30.04 "Hg10 mi
8:50 AM52 °FSunny.2 mph77%30.04 "Hg10 mi
8:20 AM48 °FPassing clouds.5 mph82%30.04 "HgN/A
7:50 PM
Mon, May 2
59 °FSunny.6 mph51%30.12 "Hg10 mi
7:20 PM61 °FPassing clouds.7 mph48%30.12 "HgN/A
6:50 PM61 °FPassing clouds.8 mph48%30.12 "HgN/A
6:20 PM61 °FPassing clouds.6 mph48%30.15 "HgN/A
5:50 PM63 °FPassing clouds.8 mph45%30.15 "HgN/A
5:20 PM61 °FPassing clouds.9 mph48%30.15 "HgN/A
4:50 PM63 °FScattered clouds.10 mph45%30.15 "HgN/A
4:20 PM61 °FScattered clouds.9 mph48%30.15 "HgN/A
3:50 PM61 °FScattered clouds.8 mph48%30.18 "HgN/A
3:20 PM63 °FScattered clouds.8 mph45%30.18 "HgN/A
2:50 PM61 °FScattered clouds.7 mph48%30.18 "HgN/A
2:20 PM61 °FScattered clouds.9 mph48%30.18 "HgN/A
1:50 PM61 °FScattered clouds.12 mph42%30.21 "HgN/A
1:20 PM61 °FScattered clouds.12 mph45%30.21 "HgN/A
12:50 PM59 °FScattered clouds.10 mph55%30.21 "HgN/A
12:20 PM59 °FScattered clouds.10 mph51%30.21 "HgN/A
Weather by CustomWeather, © 2016

See weather overviewHow to use our weather pages